Hourly Weather Roundup
Issued by NWS Central Illinois

Home | Current Version | Previous Version | Text Only | Print | Product List | Glossary On
Versions: 1 2 3 4 5 6 7 8 9 10 11 12 13 14 15 16 17 18 19 20 21 22 23 24 25 26 27 28 29 30 31 32 33 34 35 36 37 38 39 40 41 42 43 44 45 46 47 48 49 50
000
NZUS43 KILX 241110
HWRILX

Area Weather Roundup
National Weather Service Lincoln IL
600 AM CDT MON APR 24 2017

NOTE:  "FAIR" indicates few or no clouds below 12,000 feet, with
       no sigificant weather and/or obstructions to visibility.


CITY           SKY/WX    TMP DP  RH WIND       PRES   REMARKS
Bloomington    CLEAR     44  29  55 SE10      29.99S
Champaign      CLEAR     47  29  49 NE9       29.97F
Danville       CLEAR     39  31  74 NE3       29.96R
Decatur        CLEAR     41  30  65 NE6       29.98R
Effingham      CLEAR     49  33  54 CALM      29.96S
Flora          CLEAR     48  35  61 N5        29.93S
Galesburg      CLEAR     40  35  83 SE3       29.96S
Jacksonville   CLEAR     42  31  64 CALM      29.97R
Lacon          CLEAR     38  30  72 CALM      29.98S
Lawrenceville  CLEAR     48  35  60 NE9       29.93R
Litchfield     CLEAR     47  32  55 E9        29.95S
$$


CITY           SKY/WX    TMP DP  RH WIND       PRES   REMARKS
Lincoln        CLEAR     43  31  63 CALM      29.97S
Macomb         CLEAR     40  33  74 CALM      29.99S
Mattoon        CLEAR     41  33  73 N3        29.96R
Mt Carmel AP   CLEAR     49  33  53 NE7       29.92R
Olney-Noble AP CLEAR     48  35  59 NE5       29.93F
Paris AP       CLEAR     44  34  67 NE6       29.97S
Peoria         CLEAR     46  28  49 E5        29.98S
Pontiac        CLEAR     42  32  66 E7        30.00R
Rantoul        CLEAR     48  32  53 NE7       29.98F
Robinson       CLEAR     42  34  72 N7        29.94F
Springfield    CLEAR     47  29  49 CALM      29.97S
Taylorville    CLEAR     41  30  64 CALM      29.97R
$$

...REGIONAL REPORTS...


CITY           SKY/WX    TMP DP  RH WIND       PRES   REMARKS
Chicago O`Hare PTCLDY    40  36  86 N5        30.02S
Kankakee       CLEAR     38  31  74 CALM      30.02R
Moline         CLOUDY    41  34  76 CALM      29.97R
Mount Sterling CLEAR     43  29  58 SE3       29.95F
Mount Vernon   CLOUDY    40  36  86 N3        29.93R
Pittsfield     CLEAR     39  34  81 CALM      29.96F
Quincy         CLEAR     46  31  55 SE7       29.95F
Rockford       PTCLDY    42  36  79 E3        30.02R
$$


CITY           SKY/WX    TMP DP  RH WIND       PRES   REMARKS
Burlington     CLEAR     49  32  52 SE5       29.95S
Cedar Rapids   CLOUDY    43  34  70 SE6       29.93S
Des Moines     CLOUDY    50  33  52 SE9       29.88F
Kirksville     CLOUDY    48  28  46 S3        29.94F
Ottumwa        CLOUDY    45  32  60 S7        29.92F
St Louis       PTCLDY    45  36  70 CALM      29.95S
$$


CITY           SKY/WX    TMP DP  RH WIND       PRES   REMARKS
Terre Haute    CLEAR     38  32  79 N7        29.95F WCI  33
Evansville     CLEAR     51  36  56 CALM      29.90R
Indianapolis   PTCLDY    47  34  60 NE10      29.96R
Lafayette      CLEAR     38  36  92 CALM      29.99S
Madison        PTCLDY    36  32  85 E5        30.00S WCI  32
Milwaukee      CLOUDY    39  35  86 CALM      30.03S
$$






USA.gov is the U.S. government's official web portal to all federal, state and local government web resources and services.